Time,TemperatureF,DewpointF,PressureIn,WindDirection,WindDirectionDegrees,WindSpeedMPH,WindSpeedGustMPH,Humidity,HourlyPrecipIn,Conditions,Clouds,dailyrainin,SoftwareType,DateUTC
2013-03-12 00:00:00,29.1,25.2,29.72,North,0,0.0,6.3,85,0.00,,,0.02,WUHU21623XXSP,2013-03-12 05:00:00,
2013-03-12 00:05:00,29.1,25.2,29.72,North,0,1.6,7.4,85,0.00,,,0.00,WUHU21623XXSP,2013-03-12 05:05:00,
2013-03-12 00:10:00,29.1,25.2,29.72,North,0,6.7,7.4,85,0.00,,,0.00,WUHU21623XXSP,2013-03-12 05:10:00,
2013-03-12 00:15:00,29.1,24.9,29.73,North,0,6.7,6.7,84,0.00,,,0.00,WUHU21623XXSP,2013-03-12 05:15:00,
2013-03-12 00:20:00,28.9,25.0,29.73,North,0,4.9,6.7,85,0.00,,,0.00,WUHU21623XXSP,2013-03-12 05:20:00,
2013-03-12 00:25:00,28.9,25.0,29.72,North,0,0.0,4.9,85,0.00,,,0.00,WUHU21623XXSP,2013-03-12 05:25:00,
2013-03-12 00:30:00,28.9,25.0,29.73,North,0,2.5,11.9,85,0.00,,,0.00,WUHU21623XXSP,2013-03-12 05:30:00,
2013-03-12 00:35:00,28.8,24.8,29.73,North,0,4.5,12.8,85,0.00,,,0.00,WUHU21623XXSP,2013-03-12 05:35:00,
2013-03-12 00:40:00,28.8,25.1,29.73,North,0,2.0,12.8,86,0.00,,,0.00,WUHU21623XXSP,2013-03-12 05:40:00,
2013-03-12 00:45:00,28.8,25.1,29.73,North,0,2.5,7.4,86,0.00,,,0.00,WUHU21623XXSP,2013-03-12 05:45:00,
2013-03-12 00:50:00,28.8,25.1,29.74,North,0,3.1,7.4,86,0.00,,,0.00,WUHU21623XXSP,2013-03-12 05:50:00,
2013-03-12 00:55:00,28.6,25.1,29.73,North,0,5.4,5.4,86,0.00,,,0.00,WUHU21623XXSP,2013-03-12 05:55:00,
2013-03-12 01:00:00,28.6,25.2,29.74,North,0,5.4,5.4,87,0.00,,,0.00,WUHU21623XXSP,2013-03-12 06:00:00,
2013-03-12 01:05:00,28.6,25.2,29.74,North,0,2.9,5.4,87,0.00,,,0.00,WUHU21623XXSP,2013-03-12 06:05:00,
2013-03-12 01:10:00,28.2,25.1,29.74,North,0,5.8,5.8,88,0.00,,,0.00,WUHU21623XXSP,2013-03-12 06:10:00,
2013-03-12 01:15:00,28.2,25.1,29.74,North,0,0.0,5.8,88,0.00,,,0.00,WUHU21623XXSP,2013-03-12 06:15:00,
2013-03-12 01:20:00,28.2,25.1,29.74,North,0,0.0,2.5,88,0.00,,,0.00,WUHU21623XXSP,2013-03-12 06:20:00,
2013-03-12 01:25:00,28.2,25.4,29.74,North,0,0.0,2.5,89,0.00,,,0.00,WUHU21623XXSP,2013-03-12 06:25:00,
2013-03-12 01:30:00,28.2,25.4,29.74,North,0,2.5,2.5,89,0.00,,,0.00,WUHU21623XXSP,2013-03-12 06:30:00,
2013-03-12 01:35:00,28.2,25.4,29.74,North,0,0.0,3.4,89,0.00,,,0.00,WUHU21623XXSP,2013-03-12 06:35:00,
2013-03-12 01:40:00,28.0,25.2,29.75,North,0,0.0,3.4,89,0.00,,,0.00,WUHU21623XXSP,2013-03-12 06:40:00,
2013-03-12 01:45:00,28.0,25.5,29.75,North,0,1.6,1.6,90,0.00,,,0.00,WUHU21623XXSP,2013-03-12 06:45:00,
2013-03-12 01:50:00,28.0,25.5,29.75,North,0,2.2,3.4,90,0.00,,,0.00,WUHU21623XXSP,2013-03-12 06:50:00,
2013-03-12 01:55:00,28.0,25.5,29.75,North,0,0.0,3.4,90,0.00,,,0.00,WUHU21623XXSP,2013-03-12 06:55:00,
2013-03-12 02:00:00,28.0,25.5,29.75,North,0,0.0,2.2,90,0.00,,,0.00,WUHU21623XXSP,2013-03-12 07:00:00,
2013-03-12 02:05:00,27.9,25.3,29.75,North,0,0.0,2.0,90,0.00,,,0.00,WUHU21623XXSP,2013-03-12 07:05:00,
2013-03-12 02:10:00,27.9,25.3,29.75,North,0,0.0,2.0,90,0.00,,,0.00,WUHU21623XXSP,2013-03-12 07:10:00,
2013-03-12 02:15:00,27.7,25.4,29.75,North,0,1.6,1.6,91,0.00,,,0.00,WUHU21623XXSP,2013-03-12 07:15:00,
2013-03-12 02:20:00,27.7,25.4,29.76,North,0,2.5,2.5,91,0.00,,,0.00,WUHU21623XXSP,2013-03-12 07:20:00,
2013-03-12 02:25:00,27.7,25.2,29.76,North,0,5.6,5.6,90,0.00,,,0.00,WUHU21623XXSP,2013-03-12 07:25:00,
2013-03-12 02:30:00,27.7,25.2,29.76,North,0,1.1,5.6,90,0.00,,,0.00,WUHU21623XXSP,2013-03-12 07:30:00,
2013-03-12 02:35:00,27.7,25.2,29.76,North,0,4.9,4.9,90,0.00,,,0.00,WUHU21623XXSP,2013-03-12 07:35:00,
2013-03-12 02:40:00,27.7,25.2,29.76,North,0,4.7,4.9,90,0.00,,,0.00,WUHU21623XXSP,2013-03-12 07:40:00,
2013-03-12 02:45:00,27.5,25.0,29.76,North,0,0.0,4.7,90,0.00,,,0.00,WUHU21623XXSP,2013-03-12 07:45:00,
2013-03-12 02:50:00,27.7,25.0,29.76,North,0,0.0,2.0,90,0.00,,,0.00,WUHU21623XXSP,2013-03-12 07:50:00,
2013-03-12 02:55:00,27.7,25.2,29.76,North,0,2.9,7.6,90,0.00,,,0.00,WUHU21623XXSP,2013-03-12 07:55:00,
2013-03-12 03:00:00,27.5,25.0,29.76,North,0,0.0,7.6,90,0.00,,,0.00,WUHU21623XXSP,2013-03-12 08:00:00,
2013-03-12 03:05:00,27.5,25.0,29.76,North,0,0.0,2.7,90,0.00,,,0.00,WUHU21623XXSP,2013-03-12 08:05:00,
2013-03-12 03:10:00,27.5,25.0,29.76,North,0,3.1,3.1,90,0.00,,,0.00,WUHU21623XXSP,2013-03-12 08:10:00,
2013-03-12 03:15:00,27.3,24.8,29.76,North,0,2.9,3.1,90,0.00,,,0.00,WUHU21623XXSP,2013-03-12 08:15:00,
2013-03-12 03:20:00,27.3,24.8,29.76,North,0,2.5,2.9,90,0.00,,,0.00,WUHU21623XXSP,2013-03-12 08:20:00,
2013-03-12 03:25:00,27.3,24.8,29.76,North,0,5.1,5.1,90,0.00,,,0.00,WUHU21623XXSP,2013-03-12 08:25:00,
2013-03-12 03:30:00,27.1,24.6,29.76,North,0,6.0,6.0,90,0.00,,,0.00,WUHU21623XXSP,2013-03-12 08:30:00,
2013-03-12 03:35:00,27.1,24.6,29.77,North,0,6.5,6.5,90,0.00,,,0.00,WUHU21623XXSP,2013-03-12 08:35:00,
2013-03-12 03:40:00,27.1,24.6,29.77,North,0,4.5,6.5,90,0.00,,,0.00,WUHU21623XXSP,2013-03-12 08:40:00,
2013-03-12 03:45:00,27.1,24.6,29.77,North,0,4.5,6.5,90,0.00,,,0.00,WUHU21623XXSP,2013-03-12 08:45:00,
2013-03-12 03:50:00,27.1,24.6,29.77,North,0,3.1,5.1,90,0.00,,,0.00,WUHU21623XXSP,2013-03-12 08:50:00,
2013-03-12 03:55:00,27.1,24.6,29.77,North,0,7.2,7.4,90,0.00,,,0.00,WUHU21623XXSP,2013-03-12 08:55:00,
2013-03-12 04:00:00,27.0,24.4,29.77,North,0,2.7,7.4,90,0.00,,,0.00,WUHU21623XXSP,2013-03-12 09:00:00,
2013-03-12 04:05:00,27.0,24.4,29.77,North,0,1.8,6.9,90,0.00,,,0.00,WUHU21623XXSP,2013-03-12 09:05:00,
2013-03-12 04:10:00,26.8,24.3,29.77,North,0,5.4,5.4,90,0.00,,,0.00,WUHU21623XXSP,2013-03-12 09:10:00,
2013-03-12 04:15:00,27.0,24.2,29.77,North,0,5.6,5.6,89,0.00,,,0.00,WUHU21623XXSP,2013-03-12 09:15:00,
2013-03-12 04:20:00,26.8,24.0,29.77,North,0,4.5,5.6,89,0.00,,,0.00,WUHU21623XXSP,2013-03-12 09:20:00,
2013-03-12 04:25:00,26.8,24.0,29.77,North,0,3.6,5.6,89,0.00,,,0.00,WUHU21623XXSP,2013-03-12 09:25:00,
2013-03-12 04:30:00,26.8,24.0,29.77,North,0,5.4,6.3,89,0.00,,,0.00,WUHU21623XXSP,2013-03-12 09:30:00,
2013-03-12 04:35:00,26.6,23.8,29.77,North,0,2.5,6.7,89,0.00,,,0.00,WUHU21623XXSP,2013-03-12 09:35:00,
2013-03-12 04:40:00,26.6,23.8,29.77,North,0,5.1,6.7,89,0.00,,,0.00,WUHU21623XXSP,2013-03-12 09:40:00,
2013-03-12 04:45:00,26.6,23.8,29.77,North,0,6.0,6.0,89,0.00,,,0.00,WUHU21623XXSP,2013-03-12 09:45:00,
2013-03-12 04:50:00,26.4,23.3,29.78,North,0,4.5,9.4,88,0.00,,,0.00,WUHU21623XXSP,2013-03-12 09:50:00,
2013-03-12 04:55:00,26.4,23.3,29.78,North,0,5.1,9.4,88,0.00,,,0.00,WUHU21623XXSP,2013-03-12 09:55:00,
2013-03-12 05:00:00,26.4,23.0,29.78,North,0,12.1,12.1,87,0.00,,,0.00,WUHU21623XXSP,2013-03-12 10:00:00,
2013-03-12 05:05:00,26.2,22.6,29.78,North,0,4.0,12.1,86,0.00,,,0.00,WUHU21623XXSP,2013-03-12 10:05:00,
2013-03-12 05:10:00,26.4,23.0,29.79,North,0,4.9,12.1,87,0.00,,,0.00,WUHU21623XXSP,2013-03-12 10:10:00,
2013-03-12 05:15:00,26.4,23.0,29.78,North,0,4.3,4.9,87,0.00,,,0.00,WUHU21623XXSP,2013-03-12 10:15:00,
2013-03-12 05:20:00,26.4,22.7,29.79,North,0,0.0,4.3,86,0.00,,,0.00,WUHU21623XXSP,2013-03-12 10:20:00,
2013-03-12 05:25:00,26.4,22.7,29.78,North,0,8.1,8.1,86,0.00,,,0.00,WUHU21623XXSP,2013-03-12 10:25:00,
2013-03-12 05:30:00,26.4,22.7,29.79,North,0,5.6,8.1,86,0.00,,,0.00,WUHU21623XXSP,2013-03-12 10:30:00,
2013-03-12 05:35:00,26.2,22.6,29.79,North,0,3.8,8.1,86,0.00,,,0.00,WUHU21623XXSP,2013-03-12 10:35:00,
2013-03-12 05:40:00,26.2,22.6,29.78,North,0,5.4,5.6,86,0.00,,,0.00,WUHU21623XXSP,2013-03-12 10:40:00,
2013-03-12 05:45:00,26.2,22.6,29.79,North,0,0.9,5.4,86,0.00,,,0.00,WUHU21623XXSP,2013-03-12 10:45:00,
2013-03-12 05:50:00,26.1,22.1,29.79,North,0,2.5,10.3,85,0.00,,,0.00,WUHU21623XXSP,2013-03-12 10:50:00,
2013-03-12 05:55:00,26.1,22.1,29.79,North,0,6.5,10.3,85,0.00,,,0.00,WUHU21623XXSP,2013-03-12 10:55:00,
2013-03-12 06:00:00,25.9,22.0,29.80,North,0,3.8,6.5,85,0.00,,,0.00,WUHU21623XXSP,2013-03-12 11:00:00,
2013-03-12 06:05:00,25.9,22.0,29.80,North,0,4.3,4.5,85,0.00,,,0.00,WUHU21623XXSP,2013-03-12 11:05:00,
2013-03-12 06:10:00,25.9,22.0,29.79,North,0,7.4,7.4,85,0.00,,,0.00,WUHU21623XXSP,2013-03-12 11:10:00,
2013-03-12 06:15:00,25.7,21.8,29.79,North,0,2.5,7.4,85,0.00,,,0.00,WUHU21623XXSP,2013-03-12 11:15:00,
2013-03-12 06:20:00,25.5,21.6,29.80,North,0,8.5,8.5,85,0.00,,,0.00,WUHU21623XXSP,2013-03-12 11:20:00,
2013-03-12 06:25:00,25.5,21.6,29.80,North,0,3.6,11.4,85,0.00,,,0.00,WUHU21623XXSP,2013-03-12 11:25:00,
2013-03-12 06:30:00,25.3,21.4,29.80,North,0,2.7,11.4,85,0.00,,,0.00,WUHU21623XXSP,2013-03-12 11:30:00,
2013-03-12 06:35:00,25.0,21.1,29.80,North,0,5.4,5.6,85,0.00,,,0.00,WUHU21623XXSP,2013-03-12 11:35:00,
2013-03-12 06:40:00,24.8,20.9,29.79,North,0,9.6,9.6,85,0.00,,,0.00,WUHU21623XXSP,2013-03-12 11:40:00,
2013-03-12 06:45:00,24.6,20.8,29.79,North,0,5.1,9.6,85,0.00,,,0.00,WUHU21623XXSP,2013-03-12 11:45:00,
2013-03-12 06:50:00,24.4,20.6,29.79,North,0,6.7,10.3,85,0.00,,,0.00,WUHU21623XXSP,2013-03-12 11:50:00,
2013-03-12 06:55:00,23.9,20.2,29.79,North,0,6.5,10.3,85,0.00,,,0.00,WUHU21623XXSP,2013-03-12 11:55:00,
2013-03-12 07:00:00,23.5,19.9,29.79,North,0,5.1,6.5,85,0.00,,,0.00,WUHU21623XXSP,2013-03-12 12:00:00,
2013-03-12 07:05:00,23.4,19.8,29.79,North,0,5.1,6.0,86,0.00,,,0.00,WUHU21623XXSP,2013-03-12 12:05:00,
2013-03-12 07:10:00,23.2,19.6,29.79,North,0,5.4,6.0,86,0.00,,,0.00,WUHU21623XXSP,2013-03-12 12:10:00,
2013-03-12 07:15:00,22.8,19.2,29.79,North,0,3.6,5.4,86,0.00,,,0.00,WUHU21623XXSP,2013-03-12 12:15:00,
2013-03-12 07:20:00,22.3,18.7,29.79,North,0,3.4,5.4,86,0.00,,,0.00,WUHU21623XXSP,2013-03-12 12:20:00,
2013-03-12 07:25:00,22.1,18.5,29.80,North,0,2.2,4.7,86,0.00,,,0.00,WUHU21623XXSP,2013-03-12 12:25:00,
2013-03-12 07:30:00,21.7,18.1,29.80,North,0,6.5,6.5,86,0.00,,,0.00,WUHU21623XXSP,2013-03-12 12:30:00,
2013-03-12 07:35:00,21.4,17.8,29.80,North,0,7.4,8.3,86,0.00,,,0.00,WUHU21623XXSP,2013-03-12 12:35:00,
2013-03-12 07:40:00,21.4,17.8,29.80,North,0,5.4,8.3,86,0.00,,,0.00,WUHU21623XXSP,2013-03-12 12:40:00,
2013-03-12 07:45:00,21.4,17.8,29.80,North,0,5.8,6.5,86,0.00,,,0.00,WUHU21623XXSP,2013-03-12 12:45:00,
2013-03-12 07:50:00,21.4,17.8,29.80,North,0,4.5,6.5,86,0.00,,,0.00,WUHU21623XXSP,2013-03-12 12:50:00,
2013-03-12 07:55:00,21.7,18.1,29.80,North,0,4.7,4.7,86,0.00,,,0.00,WUHU21623XXSP,2013-03-12 12:55:00,
2013-03-12 08:00:00,22.1,18.2,29.80,North,0,2.9,8.3,85,0.00,,,0.00,WUHU21623XXSP,2013-03-12 13:00:00,
2013-03-12 08:05:00,22.6,18.5,29.80,North,0,4.0,8.3,84,0.00,,,0.00,WUHU21623XXSP,2013-03-12 13:05:00,
2013-03-12 08:10:00,22.8,18.7,29.81,North,0,7.2,7.2,84,0.00,,,0.00,WUHU21623XXSP,2013-03-12 13:10:00,
2013-03-12 08:15:00,22.6,18.5,29.80,North,0,6.0,8.3,84,0.00,,,0.00,WUHU21623XXSP,2013-03-12 13:15:00,
2013-03-12 08:20:00,22.5,18.3,29.80,North,0,4.0,8.3,84,0.00,,,0.00,WUHU21623XXSP,2013-03-12 13:20:00,
2013-03-12 08:25:00,22.6,18.5,29.80,North,0,3.8,6.7,84,0.00,,,0.00,WUHU21623XXSP,2013-03-12 13:25:00,
2013-03-12 08:30:00,23.2,18.7,29.81,North,0,6.3,6.3,84,0.00,,,0.00,WUHU21623XXSP,2013-03-12 13:30:00,
2013-03-12 08:35:00,23.2,18.8,29.80,North,0,6.5,7.6,83,0.00,,,0.00,WUHU21623XXSP,2013-03-12 13:35:00,
2013-03-12 08:40:00,23.2,18.8,29.81,North,0,4.9,7.6,83,0.00,,,0.00,WUHU21623XXSP,2013-03-12 13:40:00,
2013-03-12 08:45:00,23.4,18.9,29.81,North,0,5.8,5.8,83,0.00,,,0.00,WUHU21623XXSP,2013-03-12 13:45:00,
2013-03-12 08:50:00,23.5,18.9,29.81,North,0,6.9,6.9,82,0.00,,,0.00,WUHU21623XXSP,2013-03-12 13:50:00,
2013-03-12 08:55:00,23.5,18.9,29.81,North,0,3.6,6.9,82,0.00,,,0.00,WUHU21623XXSP,2013-03-12 13:55:00,
2013-03-12 09:00:00,23.7,19.0,29.81,North,0,3.8,4.5,82,0.00,,,0.00,WUHU21623XXSP,2013-03-12 14:00:00,
2013-03-12 09:05:00,24.1,19.1,29.81,North,0,9.6,9.6,81,0.00,,,0.00,WUHU21623XXSP,2013-03-12 14:05:00,
2013-03-12 09:10:00,24.1,19.1,29.81,North,0,4.7,9.6,81,0.00,,,0.00,WUHU21623XXSP,2013-03-12 14:10:00,
2013-03-12 09:15:00,24.4,19.5,29.81,North,0,8.7,8.7,81,0.00,,,0.00,WUHU21623XXSP,2013-03-12 14:15:00,
2013-03-12 09:20:00,24.6,19.7,29.81,North,0,4.0,8.7,81,0.00,,,0.00,WUHU21623XXSP,2013-03-12 14:20:00,
2013-03-12 09:25:00,24.6,19.1,29.81,North,0,4.3,8.1,79,0.00,,,0.00,WUHU21623XXSP,2013-03-12 14:25:00,
2013-03-12 09:30:00,25.0,19.4,29.81,North,0,8.3,8.3,79,0.00,,,0.00,WUHU21623XXSP,2013-03-12 14:30:00,
2013-03-12 09:35:00,25.5,19.6,29.81,North,0,3.6,8.3,78,0.00,,,0.00,WUHU21623XXSP,2013-03-12 14:35:00,
2013-03-12 09:40:00,25.9,19.9,29.81,North,0,6.9,6.9,78,0.00,,,0.00,WUHU21623XXSP,2013-03-12 14:40:00,
2013-03-12 09:45:00,26.1,19.8,29.81,North,0,8.3,8.3,77,0.00,,,0.00,WUHU21623XXSP,2013-03-12 14:45:00,
2013-03-12 09:50:00,26.4,19.8,29.82,North,0,3.6,8.3,76,0.00,,,0.00,WUHU21623XXSP,2013-03-12 14:50:00,
2013-03-12 09:55:00,26.4,19.5,29.82,North,0,5.8,5.8,75,0.00,,,0.00,WUHU21623XXSP,2013-03-12 14:55:00,
2013-03-12 10:01:00,26.6,19.4,29.82,North,0,6.5,6.5,74,0.00,,,0.00,WUHU21623XXSP,2013-03-12 15:01:00,
2013-03-12 10:06:00,27.0,20.0,29.82,North,0,7.8,7.8,75,0.00,,,0.00,WUHU21623XXSP,2013-03-12 15:06:00,
2013-03-12 10:11:00,27.3,20.1,29.82,North,0,2.2,7.8,74,0.00,,,0.00,WUHU21623XXSP,2013-03-12 15:11:00,
2013-03-12 10:16:00,27.1,19.3,29.82,North,0,12.5,12.5,72,0.00,,,0.00,WUHU21623XXSP,2013-03-12 15:16:00,
2013-03-12 10:21:00,27.1,19.6,29.82,North,0,6.9,12.5,73,0.00,,,0.00,WUHU21623XXSP,2013-03-12 15:21:00,
2013-03-12 10:26:00,27.5,20.0,29.82,North,0,7.2,10.1,73,0.00,,,0.00,WUHU21623XXSP,2013-03-12 15:26:00,
2013-03-12 10:31:00,28.0,20.5,29.82,North,0,4.3,7.2,73,0.00,,,0.00,WUHU21623XXSP,2013-03-12 15:31:00,
2013-03-12 10:36:00,27.9,20.3,29.82,North,0,10.1,10.1,73,0.00,,,0.00,WUHU21623XXSP,2013-03-12 15:36:00,
2013-03-12 10:41:00,28.0,20.5,29.82,North,0,5.8,10.1,73,0.00,,,0.00,WUHU21623XXSP,2013-03-12 15:41:00,
2013-03-12 10:46:00,28.2,21.0,29.82,North,0,8.5,9.6,74,0.00,,,0.00,WUHU21623XXSP,2013-03-12 15:46:00,
2013-03-12 10:51:00,28.4,21.2,29.82,North,0,6.0,9.2,74,0.00,,,0.00,WUHU21623XXSP,2013-03-12 15:51:00,
2013-03-12 10:56:00,29.8,22.8,29.82,North,0,2.2,8.5,75,0.00,,,0.00,WUHU21623XXSP,2013-03-12 15:56:00,
2013-03-12 11:01:00,30.4,22.7,29.82,WSW,247,4.0,10.5,73,0.00,,,0.00,WUHU21623XXSP,2013-03-12 16:01:00,
2013-03-12 11:06:00,30.7,23.1,29.82,WNW,292,2.9,10.5,73,0.00,,,0.00,WUHU21623XXSP,2013-03-12 16:06:00,
2013-03-12 11:11:00,30.6,22.6,29.81,WNW,292,4.0,4.0,72,0.00,,,0.00,WUHU21623XXSP,2013-03-12 16:11:00,
2013-03-12 11:16:00,31.6,22.9,29.82,NW,315,3.8,4.0,72,0.00,,,0.00,WUHU21623XXSP,2013-03-12 16:16:00,
2013-03-12 11:21:00,32.4,23.8,29.81,NW,315,3.8,4.0,71,0.00,,,0.00,WUHU21623XXSP,2013-03-12 16:21:00,
2013-03-12 11:26:00,32.4,23.8,29.81,WSW,247,6.3,6.3,70,0.00,,,0.00,WUHU21623XXSP,2013-03-12 16:26:00,
2013-03-12 11:31:00,32.2,24.0,29.82,WNW,292,4.3,6.3,70,0.00,,,0.00,WUHU21623XXSP,2013-03-12 16:31:00,
2013-03-12 11:36:00,31.8,23.5,29.82,WNW,292,7.2,7.2,70,0.00,,,0.00,WUHU21623XXSP,2013-03-12 16:36:00,
2013-03-12 11:41:00,31.1,22.8,29.82,West,270,5.8,7.2,71,0.02,,,0.02,WUHU21623XXSP,2013-03-12 16:41:00,
2013-03-12 11:46:00,30.7,23.1,29.82,NW,315,2.9,6.3,73,0.02,,,0.02,WUHU21623XXSP,2013-03-12 16:46:00,
2013-03-12 11:51:00,30.4,22.7,29.82,WNW,292,6.5,9.4,73,0.02,,,0.02,WUHU21623XXSP,2013-03-12 16:51:00,
2013-03-12 11:56:00,30.2,22.9,29.82,West,270,2.0,9.4,74,0.04,,,0.02,WUHU21623XXSP,2013-03-12 16:56:00,
2013-03-12 12:01:00,30.4,23.4,29.82,WNW,292,5.8,13.6,75,0.04,,,0.04,WUHU21623XXSP,2013-03-12 17:01:00,
2013-03-12 12:06:00,30.6,23.5,29.82,WSW,247,13.6,18.1,75,0.04,,,0.04,WUHU21623XXSP,2013-03-12 17:06:00,
2013-03-12 12:11:00,30.6,23.9,29.83,WNW,292,5.8,18.1,76,0.04,,,0.04,WUHU21623XXSP,2013-03-12 17:11:00,
2013-03-12 12:16:00,30.7,24.4,29.83,West,270,14.3,14.3,77,0.04,,,0.04,WUHU21623XXSP,2013-03-12 17:16:00,
2013-03-12 12:21:00,30.7,24.7,29.82,WSW,247,4.5,15.4,78,0.04,,,0.04,WUHU21623XXSP,2013-03-12 17:21:00,
2013-03-12 12:25:00,31.3,24.9,29.82,West,270,14.1,15.4,77,0.04,,,0.04,WUHU21623XXSP,2013-03-12 17:25:00,
2013-03-12 12:31:00,31.3,24.9,29.82,West,270,11.9,14.1,77,0.04,,,0.04,WUHU21623XXSP,2013-03-12 17:31:00,
2013-03-12 12:36:00,31.3,24.9,29.82,West,270,6.7,13.0,77,0.04,,,0.04,WUHU21623XXSP,2013-03-12 17:36:00,
2013-03-12 12:41:00,31.1,25.1,29.82,WNW,292,12.1,13.0,78,0.02,,,0.04,WUHU21623XXSP,2013-03-12 17:41:00,
2013-03-12 12:46:00,31.3,25.6,29.82,West,270,10.7,13.0,79,0.02,,,0.04,WUHU21623XXSP,2013-03-12 17:46:00,
2013-03-12 12:50:00,32.5,26.1,29.82,West,270,5.8,10.7,77,0.02,,,0.04,WUHU21623XXSP,2013-03-12 17:50:00,
2013-03-12 12:55:00,32.7,26.3,29.82,WSW,247,3.1,8.3,77,0.00,,,0.04,WUHU21623XXSP,2013-03-12 17:55:00,
2013-03-12 13:01:00,32.4,26.3,29.82,WSW,247,4.9,8.1,78,0.00,,,0.04,WUHU21623XXSP,2013-03-12 18:01:00,
2013-03-12 13:06:00,31.6,25.9,29.82,WSW,247,9.6,9.6,79,0.00,,,0.04,WUHU21623XXSP,2013-03-12 18:06:00,
2013-03-12 13:11:00,30.9,25.2,29.82,West,270,7.8,9.6,79,0.00,,,0.04,WUHU21623XXSP,2013-03-12 18:11:00,
2013-03-12 13:16:00,30.7,25.3,29.82,WSW,247,1.3,7.8,80,0.00,,,0.04,WUHU21623XXSP,2013-03-12 18:16:00,
2013-03-12 13:21:00,30.7,25.8,29.82,West,270,0.0,6.0,81,0.00,,,0.04,WUHU21623XXSP,2013-03-12 18:21:00,
2013-03-12 13:26:00,30.7,25.6,29.82,West,270,3.8,4.3,81,0.00,,,0.04,WUHU21623XXSP,2013-03-12 18:26:00,
2013-03-12 13:31:00,31.1,25.6,29.81,West,270,6.3,6.3,81,0.00,,,0.04,WUHU21623XXSP,2013-03-12 18:31:00,
2013-03-12 13:36:00,30.9,25.8,29.81,WNW,292,7.4,8.9,81,0.00,,,0.04,WUHU21623XXSP,2013-03-12 18:36:00,
2013-03-12 13:40:00,30.7,25.8,29.81,WSW,247,8.1,8.9,81,0.00,,,0.04,WUHU21623XXSP,2013-03-12 18:40:00,
2013-03-12 13:45:00,30.7,25.6,29.81,WSW,247,5.4,8.1,81,0.00,,,0.04,WUHU21623XXSP,2013-03-12 18:45:00,
2013-03-12 13:50:00,30.4,25.6,29.81,West,270,2.5,8.1,82,0.00,,,0.04,WUHU21623XXSP,2013-03-12 18:50:00,
2013-03-12 13:56:00,30.0,25.4,29.81,West,270,2.9,7.8,83,0.00,,,0.04,WUHU21623XXSP,2013-03-12 18:56:00,
2013-03-12 14:01:00,30.2,25.7,29.81,West,270,3.4,3.4,83,0.00,,,0.04,WUHU21623XXSP,2013-03-12 19:01:00,
2013-03-12 14:06:00,30.9,26.7,29.81,WNW,292,2.2,3.4,84,0.00,,,0.04,WUHU21623XXSP,2013-03-12 19:06:00,
2013-03-12 14:11:00,30.9,26.7,29.80,West,270,1.6,2.2,84,0.00,,,0.04,WUHU21623XXSP,2013-03-12 19:11:00,
2013-03-12 14:16:00,30.7,26.5,29.80,WNW,292,2.7,2.7,84,0.00,,,0.04,WUHU21623XXSP,2013-03-12 19:16:00,
2013-03-12 14:21:00,30.6,26.3,29.81,WNW,292,2.0,2.7,84,0.00,,,0.04,WUHU21623XXSP,2013-03-12 19:21:00,
2013-03-12 14:26:00,30.4,26.4,29.81,West,270,2.9,4.5,85,0.00,,,0.04,WUHU21623XXSP,2013-03-12 19:26:00,
2013-03-12 14:30:00,30.4,26.4,29.80,West,270,2.5,4.5,85,0.00,,,0.04,WUHU21623XXSP,2013-03-12 19:30:00,
2013-03-12 14:36:00,30.7,26.8,29.80,West,270,0.0,2.5,85,0.00,,,0.04,WUHU21623XXSP,2013-03-12 19:36:00,
2013-03-12 14:41:00,30.7,26.5,29.80,NW,315,4.7,4.7,84,0.00,,,0.04,WUHU21623XXSP,2013-03-12 19:41:00,
2013-03-12 14:46:00,30.6,26.3,29.81,WNW,292,4.0,4.7,84,0.00,,,0.04,WUHU21623XXSP,2013-03-12 19:46:00,
2013-03-12 14:51:00,30.6,26.6,29.80,West,270,0.0,4.0,85,0.00,,,0.04,WUHU21623XXSP,2013-03-12 19:51:00,
2013-03-12 14:56:00,30.6,26.6,29.80,West,270,2.2,2.2,85,0.00,,,0.04,WUHU21623XXSP,2013-03-12 19:56:00,
2013-03-12 15:01:00,31.1,26.8,29.80,WNW,292,3.6,3.6,85,0.00,,,0.04,WUHU21623XXSP,2013-03-12 20:01:00,
2013-03-12 15:06:00,30.9,27.0,29.81,WNW,292,3.1,5.1,85,0.00,,,0.04,WUHU21623XXSP,2013-03-12 20:06:00,
2013-03-12 15:11:00,30.7,27.0,29.81,NNW,337,0.0,5.1,85,0.00,,,0.04,WUHU21623XXSP,2013-03-12 20:11:00,
2013-03-12 15:16:00,30.0,26.4,29.81,NNW,337,0.0,0.0,85,0.00,,,0.04,WUHU21623XXSP,2013-03-12 20:16:00,
2013-03-12 15:21:00,29.3,25.3,29.82,WNW,292,5.8,5.8,85,0.00,,,0.04,WUHU21623XXSP,2013-03-12 20:21:00,
2013-03-12 15:26:00,29.8,25.9,29.82,NW,315,4.7,5.8,85,0.00,,,0.04,WUHU21623XXSP,2013-03-12 20:26:00,
2013-03-12 15:31:00,31.3,26.5,29.82,WNW,292,4.9,6.7,82,0.00,,,0.04,WUHU21623XXSP,2013-03-12 20:31:00,
2013-03-12 15:36:00,31.3,26.6,29.81,NW,315,2.9,6.7,81,0.00,,,0.04,WUHU21623XXSP,2013-03-12 20:36:00,
2013-03-12 15:41:00,31.3,25.9,29.81,West,270,3.8,3.8,80,0.00,,,0.04,WUHU21623XXSP,2013-03-12 20:41:00,
2013-03-12 15:46:00,31.3,25.9,29.81,West,270,4.9,6.7,80,0.00,,,0.04,WUHU21623XXSP,2013-03-12 20:46:00,
2013-03-12 15:51:00,30.9,25.5,29.81,WSW,247,6.3,6.7,80,0.00,,,0.04,WUHU21623XXSP,2013-03-12 20:51:00,
2013-03-12 15:56:00,30.9,25.5,29.82,WNW,292,2.5,6.3,80,0.00,,,0.04,WUHU21623XXSP,2013-03-12 20:56:00,
2013-03-12 16:01:00,30.4,25.2,29.82,WNW,292,4.3,4.3,81,0.00,,,0.04,WUHU21623XXSP,2013-03-12 21:01:00,
2013-03-12 16:06:00,29.8,24.7,29.82,WNW,292,4.0,4.3,81,0.00,,,0.04,WUHU21623XXSP,2013-03-12 21:06:00,
2013-03-12 16:11:00,29.1,24.3,29.83,NNW,337,6.3,6.3,82,0.00,,,0.04,WUHU21623XXSP,2013-03-12 21:11:00,
2013-03-12 16:16:00,27.7,23.1,29.83,WNW,292,5.8,10.3,83,0.00,,,0.04,WUHU21623XXSP,2013-03-12 21:16:00,
2013-03-12 16:21:00,27.7,23.4,29.83,WNW,292,9.6,10.3,84,0.00,,,0.04,WUHU21623XXSP,2013-03-12 21:21:00,
2013-03-12 16:26:00,28.0,23.8,29.83,WNW,292,6.0,9.8,84,0.00,,,0.04,WUHU21623XXSP,2013-03-12 21:26:00,
2013-03-12 16:31:00,28.9,24.7,29.83,West,270,6.7,6.7,84,0.00,,,0.04,WUHU21623XXSP,2013-03-12 21:31:00,
2013-03-12 16:37:00,29.3,24.8,29.83,West,270,2.7,6.7,83,0.00,,,0.04,WUHU21623XXSP,2013-03-12 21:37:00,
2013-03-12 16:42:00,29.7,24.8,29.83,WNW,292,1.6,4.9,82,0.00,,,0.04,WUHU21623XXSP,2013-03-12 21:42:00,
2013-03-12 16:46:00,29.8,25.0,29.84,WNW,292,3.4,3.4,81,0.00,,,0.04,WUHU21623XXSP,2013-03-12 21:46:00,
2013-03-12 16:52:00,30.0,24.9,29.83,West,270,3.1,3.4,81,0.00,,,0.04,WUHU21623XXSP,2013-03-12 21:52:00,
2013-03-12 16:57:00,30.0,24.9,29.84,WNW,292,5.1,5.1,81,0.00,,,0.04,WUHU21623XXSP,2013-03-12 21:57:00,
2013-03-12 17:02:00,29.5,24.4,29.84,West,270,4.0,5.1,81,0.00,,,0.04,WUHU21623XXSP,2013-03-12 22:02:00,
2013-03-12 17:07:00,29.1,24.0,29.84,NW,315,2.0,5.1,81,0.02,,,0.06,WUHU21623XXSP,2013-03-12 22:07:00,
2013-03-12 17:12:00,29.5,24.4,29.83,West,270,4.0,4.0,81,0.02,,,0.06,WUHU21623XXSP,2013-03-12 22:12:00,
2013-03-12 17:17:00,29.8,24.1,29.84,WNW,292,3.6,4.0,79,0.02,,,0.06,WUHU21623XXSP,2013-03-12 22:17:00,
2013-03-12 17:22:00,29.5,23.1,29.84,WNW,292,4.5,4.5,77,0.02,,,0.06,WUHU21623XXSP,2013-03-12 22:22:00,
2013-03-12 17:27:00,29.3,22.6,29.85,WNW,292,3.1,6.9,76,0.02,,,0.06,WUHU21623XXSP,2013-03-12 22:27:00,
2013-03-12 17:32:00,29.1,22.5,29.85,WNW,292,1.3,6.9,76,0.02,,,0.06,WUHU21623XXSP,2013-03-12 22:32:00,
2013-03-12 17:37:00,28.9,22.6,29.85,WNW,292,3.8,6.9,77,0.02,,,0.06,WUHU21623XXSP,2013-03-12 22:37:00,
2013-03-12 17:42:00,28.2,22.5,29.86,WNW,292,8.5,8.5,79,0.02,,,0.06,WUHU21623XXSP,2013-03-12 22:42:00,
2013-03-12 17:47:00,28.2,22.8,29.86,WNW,292,4.3,8.5,80,0.02,,,0.06,WUHU21623XXSP,2013-03-12 22:47:00,
2013-03-12 17:52:00,28.2,22.8,29.86,WNW,292,3.4,6.0,80,0.02,,,0.06,WUHU21623XXSP,2013-03-12 22:52:00,
2013-03-12 17:57:00,27.7,22.3,29.86,WNW,292,2.9,7.6,80,0.02,,,0.06,WUHU21623XXSP,2013-03-12 22:57:00,
2013-03-12 18:02:00,27.5,22.4,29.86,West,270,0.7,11.9,81,0.00,,,0.06,WUHU21623XXSP,2013-03-12 23:02:00,
2013-03-12 18:07:00,27.3,22.2,29.86,NW,315,2.2,11.9,81,0.00,,,0.06,WUHU21623XXSP,2013-03-12 23:07:00,
2013-03-12 18:12:00,27.5,22.7,29.87,WNW,292,5.6,6.0,82,0.00,,,0.06,WUHU21623XXSP,2013-03-12 23:12:00,
2013-03-12 18:17:00,27.7,22.6,29.87,NE,45,1.6,5.6,81,0.00,,,0.06,WUHU21623XXSP,2013-03-12 23:17:00,
2013-03-12 18:22:00,27.5,22.4,29.87,SE,135,0.0,3.1,81,0.00,,,0.06,WUHU21623XXSP,2013-03-12 23:22:00,
2013-03-12 18:27:00,27.3,22.5,29.87,WNW,292,2.0,3.8,82,0.00,,,0.06,WUHU21623XXSP,2013-03-12 23:27:00,
2013-03-12 18:32:00,27.1,22.3,29.88,WNW,292,3.8,3.8,82,0.00,,,0.06,WUHU21623XXSP,2013-03-12 23:32:00,
2013-03-12 18:37:00,26.8,22.3,29.87,NW,315,4.5,4.5,82,0.00,,,0.06,WUHU21623XXSP,2013-03-12 23:37:00,
2013-03-12 18:42:00,26.4,21.6,29.88,West,270,6.5,8.1,82,0.00,,,0.06,WUHU21623XXSP,2013-03-12 23:42:00,
2013-03-12 18:47:00,26.2,21.6,29.88,WSW,247,5.6,8.1,82,0.00,,,0.06,WUHU21623XXSP,2013-03-12 23:47:00,
2013-03-12 18:52:00,26.1,21.6,29.88,WNW,292,6.5,6.9,83,0.00,,,0.06,WUHU21623XXSP,2013-03-12 23:52:00,
2013-03-12 18:57:00,26.2,21.4,29.88,NNW,337,5.1,7.8,82,0.00,,,0.06,WUHU21623XXSP,2013-03-12 23:57:00,
2013-03-12 19:02:00,26.2,21.4,29.88,WNW,292,3.8,7.8,82,0.00,,,0.06,WUHU21623XXSP,2013-03-13 00:02:00,
2013-03-12 19:07:00,26.1,21.0,29.89,WNW,292,8.5,8.5,81,0.00,,,0.06,WUHU21623XXSP,2013-03-13 00:07:00,
2013-03-12 19:12:00,26.1,21.0,29.89,WNW,292,1.6,8.5,81,0.00,,,0.06,WUHU21623XXSP,2013-03-13 00:12:00,
2013-03-12 19:17:00,25.9,20.8,29.88,WNW,292,5.4,5.6,81,0.00,,,0.06,WUHU21623XXSP,2013-03-13 00:17:00,
2013-03-12 19:22:00,25.9,21.1,29.89,West,270,3.6,5.4,82,0.00,,,0.06,WUHU21623XXSP,2013-03-13 00:22:00,
2013-03-12 19:27:00,25.7,20.7,29.90,WNW,292,2.5,5.1,81,0.00,,,0.06,WUHU21623XXSP,2013-03-13 00:27:00,
2013-03-12 19:32:00,25.7,20.7,29.89,West,270,2.9,10.5,81,0.00,,,0.06,WUHU21623XXSP,2013-03-13 00:32:00,
2013-03-12 19:37:00,25.7,20.7,29.90,West,270,5.4,10.5,81,0.00,,,0.06,WUHU21623XXSP,2013-03-13 00:37:00,
2013-03-12 19:42:00,25.9,20.8,29.90,WNW,292,4.0,5.4,81,0.00,,,0.06,WUHU21623XXSP,2013-03-13 00:42:00,
2013-03-12 19:47:00,26.1,20.8,29.90,WNW,292,6.3,13.0,80,0.00,,,0.06,WUHU21623XXSP,2013-03-13 00:47:00,
2013-03-12 19:52:00,25.9,20.6,29.90,NE,45,0.0,13.0,80,0.00,,,0.06,WUHU21623XXSP,2013-03-13 00:52:00,
2013-03-12 19:57:00,25.9,20.6,29.90,NW,315,3.8,4.7,80,0.00,,,0.06,WUHU21623XXSP,2013-03-13 00:57:00,
2013-03-12 20:02:00,25.7,20.1,29.90,WNW,292,3.8,10.5,79,0.00,,,0.06,WUHU21623XXSP,2013-03-13 01:02:00,
2013-03-12 20:07:00,25.3,19.7,29.90,WNW,292,4.9,10.5,79,0.00,,,0.06,WUHU21623XXSP,2013-03-13 01:07:00,
2013-03-12 20:12:00,25.3,19.7,29.90,West,270,3.4,4.9,79,0.00,,,0.06,WUHU21623XXSP,2013-03-13 01:12:00,
2013-03-12 20:17:00,25.3,19.4,29.90,NW,315,4.7,4.7,78,0.00,,,0.06,WUHU21623XXSP,2013-03-13 01:17:00,
2013-03-12 20:22:00,25.3,19.4,29.91,West,270,3.6,4.7,78,0.00,,,0.06,WUHU21623XXSP,2013-03-13 01:22:00,
2013-03-12 20:27:00,25.3,19.7,29.91,West,270,4.0,4.7,79,0.00,,,0.06,WUHU21623XXSP,2013-03-13 01:27:00,
2013-03-12 20:32:00,25.3,20.1,29.91,West,270,5.1,9.2,80,0.00,,,0.06,WUHU21623XXSP,2013-03-13 01:32:00,
2013-03-12 20:37:00,25.2,20.2,29.92,WNW,292,9.8,9.8,81,0.00,,,0.06,WUHU21623XXSP,2013-03-13 01:37:00,
2013-03-12 20:42:00,25.2,20.4,29.92,WNW,292,6.7,9.8,82,0.00,,,0.06,WUHU21623XXSP,2013-03-13 01:42:00,
2013-03-12 20:47:00,25.2,20.3,29.92,WNW,292,4.0,8.7,82,0.00,,,0.06,WUHU21623XXSP,2013-03-13 01:47:00,
2013-03-12 20:52:00,25.0,20.3,29.92,WSW,247,4.0,6.9,83,0.00,,,0.06,WUHU21623XXSP,2013-03-13 01:52:00,
2013-03-12 20:57:00,25.0,20.6,29.93,WNW,292,5.1,6.9,83,0.00,,,0.06,WUHU21623XXSP,2013-03-13 01:57:00,
2013-03-12 21:02:00,25.0,20.6,29.93,NW,315,4.5,5.1,83,0.00,,,0.06,WUHU21623XXSP,2013-03-13 02:02:00,
2013-03-12 21:07:00,24.6,20.5,29.93,WNW,292,2.2,10.1,84,0.00,,,0.06,WUHU21623XXSP,2013-03-13 02:07:00,
2013-03-12 21:12:00,24.6,20.5,29.93,NW,315,0.0,10.1,84,0.00,,,0.06,WUHU21623XXSP,2013-03-13 02:12:00,
2013-03-12 21:17:00,24.4,20.6,29.93,NNW,337,0.0,4.0,85,0.00,,,0.06,WUHU21623XXSP,2013-03-13 02:17:00,
2013-03-12 21:22:00,24.1,20.2,29.93,WSW,247,1.6,4.0,86,0.00,,,0.06,WUHU21623XXSP,2013-03-13 02:22:00,
2013-03-12 21:28:00,24.1,20.5,29.94,NNW,337,4.5,4.5,86,0.00,,,0.06,WUHU21623XXSP,2013-03-13 02:28:00,
2013-03-12 21:33:00,24.1,20.5,29.94,NNW,337,4.5,4.5,86,0.00,,,0.06,WUHU21623XXSP,2013-03-13 02:33:00,
2013-03-12 21:38:00,23.7,20.4,29.94,WNW,292,9.4,9.4,87,0.00,,,0.06,WUHU21623XXSP,2013-03-13 02:38:00,
2013-03-12 21:43:00,23.7,20.4,29.94,WNW,292,7.6,9.4,87,0.00,,,0.06,WUHU21623XXSP,2013-03-13 02:43:00,
2013-03-12 21:48:00,23.7,20.4,29.93,West,270,4.0,7.6,87,0.00,,,0.06,WUHU21623XXSP,2013-03-13 02:48:00,
2013-03-12 21:53:00,23.7,20.4,29.94,West,270,0.9,4.0,87,0.00,,,0.06,WUHU21623XXSP,2013-03-13 02:53:00,
2013-03-12 21:58:00,23.7,20.4,29.94,NW,315,5.1,5.1,87,0.00,,,0.06,WUHU21623XXSP,2013-03-13 02:58:00,
2013-03-12 22:03:00,24.1,20.5,29.94,WNW,292,3.4,6.3,86,0.00,,,0.06,WUHU21623XXSP,2013-03-13 03:03:00,
2013-03-12 22:08:00,24.1,20.2,29.94,NE,45,2.2,6.3,85,0.00,,,0.06,WUHU21623XXSP,2013-03-13 03:08:00,
2013-03-12 22:13:00,24.1,20.2,29.95,WNW,292,2.9,2.9,85,0.00,,,0.06,WUHU21623XXSP,2013-03-13 03:13:00,
2013-03-12 22:18:00,24.1,19.7,29.94,NE,45,0.0,7.8,83,0.00,,,0.06,WUHU21623XXSP,2013-03-13 03:18:00,
2013-03-12 22:23:00,24.1,19.4,29.95,SW,225,2.9,7.8,82,0.00,,,0.06,WUHU21623XXSP,2013-03-13 03:23:00,
2013-03-12 22:28:00,24.1,19.4,29.95,North,0,4.0,4.7,82,0.00,,,0.06,WUHU21623XXSP,2013-03-13 03:28:00,
2013-03-12 22:33:00,24.1,19.1,29.95,West,270,2.2,4.0,81,0.00,,,0.06,WUHU21623XXSP,2013-03-13 03:33:00,
2013-03-12 22:38:00,24.1,19.4,29.95,WNW,292,7.8,7.8,82,0.00,,,0.06,WUHU21623XXSP,2013-03-13 03:38:00,
2013-03-12 22:43:00,23.9,19.2,29.95,West,270,0.9,7.8,82,0.00,,,0.06,WUHU21623XXSP,2013-03-13 03:43:00,
2013-03-12 22:48:00,23.9,19.5,29.95,West,270,1.6,6.0,83,0.00,,,0.06,WUHU21623XXSP,2013-03-13 03:48:00,
2013-03-12 22:53:00,23.7,19.3,29.95,WNW,292,1.8,6.0,83,0.00,,,0.06,WUHU21623XXSP,2013-03-13 03:53:00,
2013-03-12 22:58:00,23.7,19.3,29.95,West,270,2.7,4.7,83,0.00,,,0.06,WUHU21623XXSP,2013-03-13 03:58:00,
2013-03-12 23:00:00,23.7,19.3,29.96,WNW,292,1.1,4.7,83,0.00,,,0.06,WUHU21623XXSP,2013-03-13 04:00:00,
2013-03-12 23:05:00,23.5,19.1,29.96,West,270,3.8,3.8,83,0.00,,,0.06,WUHU21623XXSP,2013-03-13 04:05:00,
2013-03-12 23:10:00,23.5,19.1,29.95,NW,315,0.0,3.8,83,0.00,,,0.06,WUHU21623XXSP,2013-03-13 04:10:00,
2013-03-12 23:15:00,23.5,18.9,29.96,West,270,2.5,2.5,83,0.00,,,0.06,WUHU21623XXSP,2013-03-13 04:15:00,
2013-03-12 23:20:00,23.5,19.1,29.96,WNW,292,3.6,3.8,83,0.00,,,0.06,WUHU21623XXSP,2013-03-13 04:20:00,
2013-03-12 23:25:00,23.7,19.3,29.96,WNW,292,7.8,7.8,83,0.00,,,0.06,WUHU21623XXSP,2013-03-13 04:25:00,
2013-03-12 23:30:00,23.9,19.2,29.96,WNW,292,2.7,7.8,82,0.00,,,0.06,WUHU21623XXSP,2013-03-13 04:30:00,
2013-03-12 23:35:00,23.9,18.9,29.96,WNW,292,5.8,7.6,81,0.00,,,0.06,WUHU21623XXSP,2013-03-13 04:35:00,
2013-03-12 23:40:00,23.9,18.9,29.97,NW,315,1.8,5.8,81,0.00,,,0.06,WUHU21623XXSP,2013-03-13 04:40:00,
2013-03-12 23:45:00,24.1,19.1,29.96,NNE,22,3.1,6.3,81,0.00,,,0.06,WUHU21623XXSP,2013-03-13 04:45:00,
2013-03-12 23:50:00,24.1,18.9,29.97,NNW,337,3.4,6.3,80,0.00,,,0.06,WUHU21623XXSP,2013-03-13 04:50:00,
2013-03-12 23:55:00,24.1,18.9,29.97,WNW,292,7.4,7.4,80,0.00,,,0.06,WUHU21623XXSP,2013-03-13 04:55:00,